Temperature
8 8 7 7 7 7 7 7 7 7 7 7 7 7 7 7 6 6 6 6 6 6 6 5 5 5 5 5 5 4 4 4 3 3 3 3 3 3 3 3 3 3 3
7 7 7 7 7 7 7 7 7 7 7 7 6 6 6 6 6 6 6 6 5 5 5 5 5 5 5 4 4 4 4 3 3 3 3 3 3 3 3 3 3 3 3
7 7 7 7 7 7 7 7 7 7 6 6 6 6 6 6 6 6 5 5 5 5 5 5 5 4 4 4 4 3 3 3 3 2 2 2 2 2 2 2 2 2 2
7 7 7 7 7 7 7 6 6 6 6 6 6 6 6 5 5 5 5 5 5 4 4 4 4 4 4 3 3 3 3 2 2 2 2 2 2 2 1 1 1 1 1
6 7 6 6 6 6 6 6 6 6 6 6 5 5 5 5 5 5 5 4 4 4 4 4 4 4 3 3 3 3 2 2 2 1 1 1 1 1 1 1 1 1 1
6 6 6 6 6 6 6 6 5 5 5 5 5 5 5 5 5 4 4 4 4 4 4 3 3 3 3 3 2 2 2 2 1 1 1 0 1 0 0 -0 -0 -0 -0
6 6 6 6 6 6 5 5 5 5 5 5 5 5 4 4 4 4 4 4 3 3 3 3 3 3 3 2 2 2 2 1 1 1 0 0 -0 -0 -1 -1 -1 -1 -1
5 5 5 5 5 5 5 5 5 4 4 4 4 4 4 4 4 4 3 3 3 3 3 3 2 2 2 2 2 1 1 1 1 0 0 -0 -0 -1 -1 -1 -1 -1 -1
5 5 5 5 5 5 4 4 4 4 4 4 4 4 4 4 3 3 3 3 3 3 2 2 2 2 2 1 1 1 1 1 0 0 -0 -0 -1 -1 -1 -2 -2 -2 -2
4 4 4 4 4 4 4 4 4 4 4 4 3 3 3 3 3 3 2 2 2 2 2 2 2 2 1 1 1 0 -0 -0 -0 -0 -1 -1 -1 -1 -1 -2 -2 -3 -3
4 4 4 4 3 3 3 3 3 3 3 3 3 3 3 3 2 2 2 2 2 2 2 1 1 1 1 1 0 -0 -0 -1 -1 -1 -1 -1 -2 -2 -2 -2 -2 -3 -3
3 3 3 3 3 3 3 3 3 3 2 2 2 2 2 2 2 2 2 1 1 1 1 1 1 0 0 -0 -0 -1 -1 -1 -1 -2 -2 -2 -2 -2 -2 -3 -3 -3 -3
3 3 3 3 2 2 2 2 2 2 2 2 2 2 2 2 1 1 1 1 1 0 0 0 0 -0 -1 -1 -1 -1 -2 -2 -2 -2 -2 -2 -3 -3 -3 -3 -3 -3 -3
2 2 2 2 2 2 2 1 1 1 1 1 1 1 1 1 1 1 0 0 0 -0 -0 -1 -1 -1 -1 -2 -2 -2 -2 -2 -3 -3 -3 -3 -3 -3 -4 -4 -4 -4 -4
1 1 1 1 1 1 1 1 1 1 1 1 0 0 0 0 0 0 -0 -0 -1 -1 -1 -2 -2 -2 -2 -2 -2 -3 -3 -3 -3 -3 -4 -4 -4 -4 -4 -4 -5 -5 -5
1 1 0 0 0 0 0 0 0 0 0 0 -0 -0 -0 -0 -1 -1 -1 -1 -1 -2 -2 -2 -2 -2 -3 -3 -3 -3 -3 -3 -4 -4 -4 -4 -4 -4 -5 -5 -5 -5 -5
-0 -0 -0 -0 -0 -0 -0 -0 -0 -0 -0 -0 -1 -1 -1 -1 -1 -1 -1 -1 -2 -2 -2 -2 -3 -3 -3 -3 -3 -4 -4 -4 -4 -4 -4 -5 -5 -5 -5 -5 -5 -6 -6
-1 -1 -1 -1 -1 -1 -1 -1 -1 -1 -1 -1 -1 -1 -1 -2 -2 -2 -2 -2 -2 -3 -3 -3 -3 -3 -4 -4 -4 -4 -4 -4 -5 -5 -5 -5 -5 -5 -6 -6 -6 -6 -6
-1 -1 -2 -2 -2 -2 -2 -2 -2 -2 -2 -2 -2 -2 -2 -2 -2 -3 -3 -3 -3 -3 -3 -3 -3 -4 -4 -4 -4 -4 -5 -5 -5 -5 -5 -5 -6 -6 -6 -6 -6 -6 -6
-2 -2 -2 -2 -2 -2 -2 -2 -3 -2 -3 -3 -3 -3 -3 -3 -3 -3 -3 -3 -3 -3 -4 -4 -4 -4 -4 -5 -5 -5 -5 -5 -5 -5 -6 -6 -6 -6 -6 -6 -6 -6 -7
-3 -3 -3 -3 -3 -3 -3 -3 -3 -3 -3 -3 -3 -3 -3 -3 -3 -4 -4 -4 -4 -4 -4 -4 -4 -4 -5 -5 -5 -5 -5 -5 -5 -6 -6 -6 -6 -6 -6 -7 -7 -7 -7
-3 -3 -3 -3 -3 -3 -3 -3 -4 -4 -4 -4 -4 -4 -4 -4 -4 -4 -4 -4 -4 -4 -4 -4 -5 -5 -5 -5 -5 -5 -5 -5 -6 -6 -6 -6 -6 -6 -7 -7 -7 -7 -7
-4 -4 -4 -4 -4 -4 -4 -4 -4 -4 -4 -4 -4 -4 -4 -5 -5 -5 -4 -5 -5 -5 -5 -5 -5 -5 -5 -5 -5 -6 -6 -6 -6 -6 -6 -6 -7 -7 -7 -7 -7 -7 -8
-4 -4 -4 -4 -4 -5 -5 -5 -5 -5 -5 -5 -5 -5 -5 -5 -5 -5 -5 -5 -5 -5 -5 -5 -5 -5 -5 -6 -6 -6 -6 -6 -6 -6 -6 -7 -7 -7 -7 -7 -7 -8 -8
-5 -5 -5 -5 -5 -5 -5 -5 -5 -5 -5 -5 -5 -5 -5 -5 -5 -5 -5 -5 -5 -5 -5 -6 -6 -6 -6 -6 -6 -6 -6 -6 -6 -7 -7 -7 -7 -7 -7 -8 -8 -8 -8
-6 -6 -5 -5 -5 -6 -6 -6 -6 -6 -6 -6 -6 -6 -6 -6 -6 -6 -6 -6 -6 -6 -6 -6 -6 -6 -6 -6 -6 -6 -6 -7 -7 -7 -7 -7 -8 -8 -8 -8 -8 -8 -8
Wind_Speed
5 5 5 5 5 5 5 5 5 5 6 6 6 6 5 5 5 5 5 5 5 4 4 5 5 4 3 3 3 4 4 4 6 5 5 5 6 7 7 8 9 9 9
5 5 6 5 5 5 5 5 5 5 6 6 6 6 6 6 6 6 6 6 6 6 5 5 5 4 5 4 4 5 5 5 6 7 6 5 7 7 7 8 8 8 9
5 6 6 6 6 7 6 6 6 6 6 6 7 7 6 6 6 6 6 6 6 6 6 6 6 6 6 5 5 5 5 5 6 6 7 5 6 6 7 7 8 8 8
6 6 6 7 7 7 6 6 6 6 6 7 7 7 7 7 7 7 7 7 7 7 6 7 7 7 7 6 6 6 6 6 6 7 7 6 6 6 6 6 6 6 6
6 6 7 6 6 6 6 6 6 6 6 7 7 7 7 7 7 8 7 7 7 7 7 7 7 7 7 7 6 6 6 6 6 6 7 7 6 6 6 5 7 7 7
6 6 5 5 5 6 6 6 6 6 6 7 7 7 7 7 8 10 8 7 7 8 8 7 7 8 8 10 10 9 9 8 8 7 7 8 8 7 6 6 6 7 6
5 5 5 5 6 6 6 6 7 7 7 7 8 8 8 8 9 11 11 8 8 8 8 8 6 6 8 8 9 10 11 12 11 9 9 10 9 8 7 7 7 8 8
4 4 5 5 6 5 6 6 7 6 7 7 8 8 8 8 10 11 11 10 9 9 9 9 8 8 8 8 8 8 9 9 10 9 10 10 9 8 8 8 8 9 9
4 5 5 5 5 5 6 7 7 6 7 7 7 7 8 8 9 11 10 8 8 9 9 9 9 9 9 10 8 8 9 9 9 11 11 11 11 11 9 6 6 6 7
4 4 4 5 5 6 6 6 6 6 6 6 7 7 8 8 9 11 11 7 8 8 7 8 10 10 10 11 9 9 10 9 7 7 8 10 10 10 10 8 7 7 6
4 4 4 5 6 6 6 5 5 5 6 6 6 6 7 8 8 11 12 8 8 7 7 7 7 11 12 12 11 9 10 8 7 7 7 7 7 6 7 7 7 7 8
4 4 4 5 5 4 5 5 5 5 6 6 6 6 6 6 7 9 11 12 9 8 8 7 7 9 11 12 11 10 10 8 6 6 6 7 7 7 6 6 8 9 9
4 5 5 5 5 4 5 5 5 5 5 5 5 6 5 5 6 9 10 12 12 9 7 8 8 9 10 9 10 11 9 7 6 6 7 7 6 6 5 5 6 7 9
5 5 5 5 4 4 4 4 5 5 6 5 6 6 6 5 5 5 5 6 9 8 7 7 9 9 8 7 7 7 6 6 7 7 7 6 5 5 5 5 5 5 6
5 5 5 5 5 4 5 5 6 7 7 7 6 6 6 7 7 7 6 6 6 6 5 4 5 5 5 5 5 6 5 5 6 6 6 6 5 5 6 5 5 5 6
5 5 4 4 4 4 5 5 6 7 8 9 9 8 7 8 9 10 10 10 9 8 6 6 6 6 6 6 6 6 6 6 6 6 6 6 6 6 6 5 5 6 7
6 6 5 5 5 5 5 5 5 5 7 9 9 9 9 9 10 10 10 9 9 9 7 6 6 6 6 6 6 6 6 6 5 5 6 6 6 6 6 6 6 6 7
6 6 6 5 5 5 5 5 5 5 5 5 6 8 9 9 9 9 8 7 6 7 6 6 6 6 6 6 6 6 6 5 5 6 6 6 6 6 6 7 7 7 7
6 5 5 5 5 5 5 5 5 6 5 5 4 5 6 7 8 8 7 6 6 6 6 6 6 6 6 6 6 6 6 6 6 6 6 6 6 6 7 7 7 8 8
5 6 6 5 5 5 5 5 5 5 5 5 5 5 4 4 4 5 6 6 6 6 6 6 6 6 6 6 5 5 6 6 6 6 6 6 6 6 7 8 7 6 6
5 5 6 5 5 5 5 5 5 5 5 5 5 5 6 5 6 6 6 6 6 6 6 6 5 5 6 5 5 6 7 6 6 6 6 6 6 6 6 6 6 6 5
5 5 5 5 5 5 5 5 5 5 6 6 5 5 7 6 6 6 6 6 6 5 5 5 6 5 5 5 5 6 6 6 6 6 6 6 6 6 6 5 5 5 5
5 5 5 5 5 6 6 5 5 5 5 5 5 5 5 5 6 6 6 5 5 5 5 5 6 5 5 5 5 5 6 7 6 6 6 5 5 5 5 5 6 5 5
5 5 5 5 5 5 5 5 5 5 5 5 5 5 5 5 5 6 5 5 5 5 5 5 5 6 6 5 5 6 7 7 6 6 6 6 6 5 5 5 5 5 5
5 6 5 5 5 5 5 5 5 5 5 5 5 5 5 5 5 5 5 5 5 5 5 5 5 5 6 7 6 7 8 8 8 6 6 5 6 5 5 5 4 4 4
6 6 5 5 5 5 5 5 5 5 5 5 5 5 5 5 5 5 5 4 4 4 5 5 5 6 6 6 7 8 8 8 7 7 6 5 5 5 5 4 5 5 4
Wind_Direction
187 187 190 192 192 193 195 197 197 193 188 187 189 190 190 190 192 195 199 197 203 207 210 216 220 219 221 221 222 228 233 242 261 271 266 273 274 276 282 282 280 278 276
194 195 197 197 197 203 207 204 201 201 196 195 195 196 197 198 200 203 204 205 209 214 216 220 224 221 228 229 227 231 236 237 253 270 272 270 272 280 285 286 283 279 280
197 199 200 201 203 209 211 207 204 203 199 196 198 201 203 205 210 213 213 215 218 222 221 223 227 224 230 231 232 236 239 242 246 262 273 274 274 277 285 284 282 282 283
197 201 207 210 212 214 213 209 207 207 205 202 205 208 209 209 212 215 216 220 224 227 228 229 230 228 232 233 235 237 238 241 244 254 266 273 274 278 279 284 287 286 287
205 209 216 216 213 213 214 214 213 213 215 210 211 213 213 213 216 215 216 222 227 230 232 233 233 231 235 236 236 238 236 242 247 254 263 270 271 276 277 281 285 292 287
219 222 224 221 215 215 217 216 214 215 216 214 215 217 217 220 217 219 223 226 229 233 236 236 234 230 231 235 239 242 241 243 247 253 260 264 269 273 280 281 284 290 290
229 231 229 224 219 217 214 214 216 219 218 219 220 221 225 226 220 222 225 231 233 235 237 237 234 233 232 236 237 239 243 245 247 252 258 263 270 271 276 276 275 277 278
239 237 232 227 225 219 216 219 221 221 222 224 225 226 231 232 224 227 226 231 237 238 238 237 238 238 233 233 238 241 245 246 245 249 256 263 267 270 265 269 276 279 279
254 249 239 228 228 225 226 227 226 224 226 227 229 229 233 237 228 229 226 232 236 240 240 239 238 241 235 230 236 243 250 253 249 248 257 265 270 267 262 263 265 273 279
264 259 251 239 234 235 236 236 233 230 233 233 235 234 235 241 233 229 226 230 237 241 241 240 236 238 238 230 236 242 250 256 256 254 253 257 260 258 250 249 253 261 272
277 266 254 245 241 241 240 236 233 232 235 236 238 240 240 243 240 233 228 229 235 240 242 242 240 234 238 237 239 245 250 258 258 256 259 260 258 255 251 247 247 248 254
286 270 260 252 245 240 238 238 235 231 233 238 240 245 246 244 242 238 232 232 237 240 245 247 244 235 241 243 243 247 252 256 256 254 255 256 256 255 254 254 253 252 254
280 270 265 259 249 239 233 233 234 231 233 238 242 248 252 249 245 241 239 238 237 241 247 246 248 244 246 247 244 246 247 248 247 248 253 257 259 260 261 261 259 257 261
278 273 268 259 251 242 237 233 232 233 235 238 243 250 254 253 250 243 239 240 237 241 249 247 244 243 241 246 246 243 242 243 245 251 257 262 263 258 257 258 264 265 269
279 276 270 260 254 247 241 239 238 240 239 241 245 246 250 254 248 240 244 244 241 241 244 248 244 238 236 238 240 241 241 240 244 250 254 258 260 259 261 261 262 263 264
280 275 269 263 259 254 253 257 247 248 252 251 253 251 253 257 261 252 250 250 246 236 235 239 240 239 237 238 241 243 241 243 245 246 249 253 256 259 264 263 260 260 264
272 272 271 266 259 255 254 256 267 262 250 250 250 250 252 257 259 254 251 252 245 230 236 240 240 241 241 240 241 243 246 247 245 244 247 251 254 257 261 262 259 259 261
277 271 265 265 259 254 252 253 256 260 267 269 255 250 253 257 259 255 247 245 240 230 235 240 240 241 242 242 243 245 247 247 243 245 247 250 250 253 257 259 257 258 262
278 272 267 264 260 256 255 254 253 254 258 266 271 264 254 257 257 249 235 235 235 235 237 240 241 241 244 245 245 245 246 247 246 246 249 250 249 251 256 257 259 259 259
278 270 268 266 262 258 255 254 254 254 255 257 259 263 259 255 253 243 233 233 236 239 240 242 241 241 243 245 245 244 246 248 247 247 250 251 250 251 255 258 257 257 255
282 275 265 264 260 257 257 257 257 256 257 261 262 259 251 251 252 249 242 237 238 241 241 242 242 241 242 242 242 242 244 248 248 248 249 250 252 254 256 256 254 252 252
278 276 270 266 264 260 261 260 258 257 258 262 268 263 255 254 252 250 246 245 244 242 241 242 245 244 241 240 242 245 247 249 248 246 247 248 250 252 253 251 249 246 244
276 273 270 268 266 266 266 263 261 261 263 263 263 260 254 252 252 250 249 249 247 245 242 240 243 244 243 242 241 242 246 248 247 246 245 247 247 248 247 244 242 242 241
277 273 272 272 269 265 264 265 264 262 262 262 260 257 256 255 256 256 255 253 248 245 243 240 240 241 243 249 250 246 247 248 246 242 240 240 243 244 243 241 240 238 239
283 278 274 270 268 266 265 265 263 262 260 260 260 259 260 258 258 257 256 253 250 246 244 245 245 243 242 246 250 250 247 245 246 243 233 233 235 237 237 237 235 234 233
285 282 277 274 270 267 266 266 265 264 263 263 260 260 259 259 259 258 255 252 251 250 250 250 245 244 247 250 249 247 247 247 246 246 240 233 232 231 229 229 226 225 226
Height
1488 1490 1492 1493 1494 1496 1497 1498 1498 1499 1500 1501 1503 1503 1504 1504 1505 1505 1506 1507 1507 1507 1508 1508 1508 1508 1508 1508 1507 1507 1507 1506 1505 1503 1503 1502 1500 1499 1497 1496 1494 1493 1491
1486 1488 1489 1491 1492 1493 1494 1495 1495 1496 1497 1498 1499 1499 1500 1501 1502 1502 1503 1503 1504 1504 1504 1504 1504 1504 1504 1504 1503 1503 1503 1502 1501 1499 1498 1497 1496 1494 1493 1491 1489 1488 1486
1484 1485 1486 1488 1489 1490 1490 1491 1492 1493 1493 1494 1495 1495 1496 1497 1498 1499 1499 1500 1500 1500 1500 1500 1500 1500 1500 1500 1499 1499 1498 1497 1496 1495 1493 1492 1490 1489 1488 1486 1484 1482 1481
1481 1482 1483 1484 1485 1486 1487 1488 1488 1489 1490 1490 1491 1492 1493 1493 1494 1495 1495 1496 1496 1496 1496 1496 1496 1496 1496 1495 1495 1494 1493 1493 1492 1490 1488 1487 1485 1484 1483 1481 1479 1477 1475
1478 1479 1479 1481 1482 1482 1483 1484 1484 1485 1486 1486 1487 1488 1488 1489 1490 1490 1491 1491 1491 1491 1491 1491 1491 1491 1491 1491 1490 1490 1489 1488 1487 1486 1484 1482 1481 1479 1478 1476 1474 1472 1470
1474 1474 1475 1476 1477 1478 1479 1479 1480 1481 1481 1481 1482 1483 1484 1484 1485 1486 1487 1487 1487 1486 1486 1486 1486 1486 1486 1485 1485 1484 1484 1483 1482 1481 1479 1478 1476 1475 1473 1472 1470 1467 1465
1470 1471 1471 1472 1472 1473 1474 1475 1476 1476 1477 1477 1478 1479 1479 1480 1480 1481 1481 1482 1481 1481 1481 1481 1481 1480 1480 1480 1479 1479 1478 1478 1477 1476 1474 1473 1471 1470 1469 1467 1465 1463 1461
1467 1467 1467 1468 1468 1469 1470 1470 1471 1472 1472 1473 1473 1474 1474 1474 1475 1475 1476 1476 1476 1476 1476 1476 1475 1475 1475 1475 1474 1473 1472 1472 1472 1470 1469 1468 1466 1465 1464 1463 1461 1458 1456
1463 1463 1463 1464 1464 1464 1465 1465 1466 1467 1467 1468 1468 1468 1468 1469 1470 1470 1470 1470 1470 1470 1470 1470 1469 1469 1469 1469 1468 1467 1466 1466 1465 1464 1463 1462 1461 1460 1459 1457 1455 1453 1450
1460 1459 1459 1459 1459 1460 1460 1461 1461 1462 1462 1462 1462 1463 1463 1463 1464 1464 1465 1464 1464 1464 1464 1464 1463 1463 1463 1463 1462 1462 1461 1460 1459 1458 1457 1456 1455 1454 1453 1452 1450 1448 1446
1456 1456 1455 1455 1455 1455 1456 1456 1456 1456 1457 1457 1457 1457 1457 1458 1458 1458 1459 1458 1458 1458 1458 1457 1457 1458 1457 1457 1457 1456 1455 1455 1453 1452 1451 1450 1449 1448 1446 1445 1444 1443 1441
1452 1451 1451 1451 1451 1451 1451 1451 1451 1451 1451 1451 1451 1451 1451 1452 1452 1452 1452 1452 1452 1452 1451 1451 1452 1451 1451 1451 1450 1450 1450 1449 1448 1446 1445 1444 1443 1442 1440 1439 1438 1437 1436
1448 1447 1446 1446 1446 1445 1445 1445 1446 1446 1446 1445 1445 1445 1445 1446 1446 1446 1446 1446 1446 1446 1445 1445 1446 1445 1445 1444 1444 1444 1443 1442 1441 1440 1439 1438 1437 1436 1435 1433 1432 1431 1430
1443 1442 1441 1441 1440 1440 1440 1440 1440 1440 1440 1440 1440 1440 1439 1440 1440 1440 1440 1440 1440 1440 1439 1439 1439 1439 1438 1438 1438 1437 1437 1436 1435 1434 1433 1432 1431 1430 1429 1428 1426 1425 1423
1439 1438 1437 1437 1436 1435 1435 1435 1435 1435 1435 1435 1434 1434 1434 1433 1434 1434 1434 1434 1434 1434 1433 1433 1433 1432 1432 1432 1431 1431 1430 1430 1429 1428 1427 1426 1425 1424 1423 1422 1421 1419 1418
1435 1434 1433 1432 1432 1431 1430 1430 1429 1430 1429 1429 1429 1429 1428 1428 1428 1428 1428 1428 1428 1428 1427 1426 1426 1426 1426 1425 1425 1425 1425 1424 1423 1423 1422 1421 1420 1418 1417 1416 1415 1414 1413
1431 1430 1429 1428 1427 1426 1425 1424 1424 1423 1423 1423 1423 1423 1422 1422 1422 1422 1422 1422 1422 1421 1421 1420 1420 1420 1420 1420 1420 1420 1419 1419 1418 1417 1416 1415 1414 1413 1412 1411 1410 1409 1407
1427 1426 1425 1424 1423 1422 1421 1420 1419 1418 1417 1417 1417 1417 1417 1416 1416 1416 1416 1416 1415 1415 1415 1415 1415 1415 1415 1415 1415 1414 1414 1413 1412 1411 1410 1409 1409 1408 1407 1406 1404 1403 1402
1423 1422 1420 1419 1418 1417 1416 1415 1414 1413 1413 1412 1411 1411 1411 1411 1411 1411 1410 1410 1409 1409 1409 1410 1410 1409 1409 1409 1409 1409 1408 1408 1407 1406 1405 1404 1403 1402 1401 1400 1399 1398 1397
1418 1417 1416 1414 1413 1412 1411 1410 1409 1409 1408 1407 1407 1406 1406 1406 1405 1405 1405 1405 1404 1404 1404 1404 1404 1404 1404 1404 1404 1403 1403 1402 1401 1401 1400 1399 1398 1397 1396 1395 1394 1393 1392
1414 1412 1411 1410 1409 1408 1407 1406 1405 1404 1403 1403 1402 1402 1402 1401 1400 1400 1400 1399 1399 1399 1399 1399 1399 1399 1399 1399 1398 1398 1397 1397 1396 1395 1394 1394 1393 1392 1391 1390 1389 1388 1388
1409 1408 1406 1405 1404 1403 1402 1401 1400 1399 1398 1398 1397 1397 1397 1396 1395 1395 1395 1394 1394 1394 1394 1394 1394 1393 1393 1393 1393 1392 1392 1391 1391 1390 1389 1389 1388 1387 1386 1385 1385 1384 1384
1405 1403 1402 1401 1399 1398 1397 1396 1396 1395 1394 1393 1392 1392 1391 1391 1390 1390 1389 1389 1389 1389 1388 1388 1388 1388 1388 1388 1388 1387 1387 1386 1385 1385 1384 1384 1383 1382 1382 1381 1381 1380 1380
1400 1399 1397 1396 1395 1393 1392 1391 1391 1390 1389 1388 1388 1387 1386 1386 1385 1385 1384 1384 1384 1383 1383 1383 1383 1383 1383 1383 1382 1382 1382 1381 1380 1380 1379 1379 1378 1378 1378 1377 1377 1377 1377
1396 1394 1392 1391 1390 1389 1388 1387 1386 1385 1384 1384 1383 1382 1382 1381 1381 1380 1380 1379 1379 1378 1378 1378 1378 1378 1378 1378 1378 1377 1377 1376 1376 1375 1375 1374 1374 1374 1374 1374 1374 1374 1374
1391 1389 1388 1386 1385 1384 1383 1382 1381 1380 1379 1379 1378 1378 1377 1376 1376 1375 1375 1374 1374 1374 1374 1373 1373 1373 1373 1373 1373 1372 1372 1371 1371 1371 1370 1370 1370 1370 1371 1371 1371 1371 1371